Satellite-Ground Cal/Val Site Overpasses Predictions

Prediction of Satellite NPP Overpassing Cal/Val Site: Antarctic Dome C

Ground Cal/Val Site Location: Latitude: -75.10, Longitude: 123.35; Satellite-Ground Site NADIR distance within 100 km.

Table of predicted overpasses for the next 14.0 days since TLE Epoch: 12/14/2019
Interval Starting Time Ending Time Minimum Distance Time Minimum Distance (km)
1 12/15/2019 15:07:28 12/15/2019 15:07:36 12/15/2019 15:07:32 94.79
2 12/16/2019 14:48:26 12/16/2019 14:48:55 12/16/2019 14:48:41 16.45
3 12/18/2019 07:31:15 12/18/2019 07:31:44 12/18/2019 07:31:29 2.25
4 12/21/2019 14:54:40 12/21/2019 14:55:09 12/21/2019 14:54:55 20.03
5 12/22/2019 14:35:57 12/22/2019 14:36:11 12/22/2019 14:36:04 87.21
6 12/23/2019 07:37:29 12/23/2019 07:37:56 12/23/2019 07:37:43 36.49
7 12/24/2019 07:18:43 12/24/2019 07:19:03 12/24/2019 07:18:53 73.62
8 12/26/2019 15:00:55 12/26/2019 15:01:19 12/26/2019 15:01:07 56.64


NCC Satellite Cal/Val Overpasses Prediction Service
